Date String (YYYY-MM-DD hh:mm:ss) UTC,Instrument flags,Ambient pressure (hPa),Sample flow (lpm),Bypass flow (lpm),Sample temperature (°C),Ambient temperature (°C),ASC tube jacket temperature (°C),LED temperature (°C),Box temperature (°C),Sample RH (%),Span deviation,Mass concentration (μg/m³),Mass concentration (μg/m³),Mass concentration (μg/m³)
DateTimeUTC,F1_M11,P_M11,Q1_M11,Q2_M11,T1_M11,T2_M11,T3_M11,T4_M11,T5_M11,U1_M11,ZSPAN_M11,X0_M11,X2_M11,X1_M11
2022-09-17 21:00:00,,0822.8,5.00,0.00,29.9,28.6,00.0,38.5,31.9,19.6,0000.0,0008.70,0004.19,0003.72
2022-09-17 21:01:00,,0822.8,5.01,0.00,29.9,27.4,00.0,38.5,31.8,19.6,0000.0,0008.75,0004.17,0003.70
2022-09-17 21:02:00,,0822.8,5.00,0.00,29.9,26.5,00.0,38.5,31.7,19.6,0000.0,0008.74,0004.18,0003.70
2022-09-17 21:03:00,,0822.8,4.99,0.00,29.8,26.5,00.0,38.4,31.6,19.6,0000.0,0008.69,0004.15,0003.70
2022-09-17 21:04:00,,0822.7,5.00,0.00,29.7,26.8,00.0,38.4,31.4,19.8,0000.0,0009.35,0004.12,0003.69
2022-09-17 21:05:00,,0822.7,5.00,0.00,29.7,27.1,00.0,38.4,31.4,20.4,0000.0,0009.44,0004.11,0003.67
2022-09-17 21:06:00,,0822.6,5.01,0.00,29.7,27.5,00.0,38.4,31.4,19.9,0000.0,0009.43,0004.09,0003.66
2022-09-17 21:07:00,,0822.6,5.00,0.00,29.7,27.8,00.0,38.4,31.5,20.7,0000.0,0010.13,0004.06,0003.65
2022-09-17 21:08:00,,0822.6,4.99,0.00,29.7,28.0,00.0,38.4,31.5,20.6,0000.0,0010.03,0004.05,0003.64
2022-09-17 21:09:00,,0822.6,5.01,0.00,29.7,28.2,00.0,38.4,31.6,20.0,0000.0,0010.15,0004.06,0003.64
2022-09-17 21:10:00,,0822.6,4.99,0.00,29.8,28.4,00.0,38.4,31.6,20.0,0000.0,0010.30,0004.06,0003.64
2022-09-17 21:11:00,,0822.6,5.01,0.00,29.8,28.5,00.0,38.4,31.7,19.8,0000.0,0010.98,0004.08,0003.63
2022-09-17 21:12:00,,0822.6,4.99,0.00,29.8,28.7,00.0,38.4,31.8,19.7,0000.0,0011.23,0004.13,0003.63
2022-09-17 21:13:00,,0822.6,5.00,0.00,29.9,28.8,00.0,38.5,31.8,19.9,0000.0,0011.76,0004.13,0003.62
2022-09-17 21:14:00,,0822.6,5.01,0.00,29.9,28.6,00.0,38.5,31.9,19.7,0000.0,0012.39,0004.13,0003.63
2022-09-17 21:15:00,,0822.6,5.01,0.00,29.9,27.3,00.0,38.5,31.8,19.7,0000.0,0011.37,0004.11,0003.63
2022-09-17 21:16:00,,0822.6,5.00,0.00,29.8,26.5,00.0,38.4,31.6,19.6,0000.0,0011.10,0004.09,0003.63
2022-09-17 21:17:00,,0822.6,4.99,0.00,29.8,26.6,00.0,38.4,31.6,19.9,0000.0,0011.12,0004.09,0003.63
2022-09-17 21:18:00,,0822.7,5.00,0.00,29.7,26.9,00.0,38.4,31.4,20.0,0000.0,0010.52,0004.10,0003.64
2022-09-17 21:19:00,,0822.6,5.01,0.00,29.7,27.2,00.0,38.4,31.4,19.9,0000.0,0010.28,0004.11,0003.63
2022-09-17 21:20:00,,0822.6,5.00,0.00,29.7,27.5,00.0,38.4,31.4,19.7,0000.0,0010.02,0004.12,0003.62
2022-09-17 21:21:00,,0822.6,5.00,0.00,29.7,27.8,00.0,38.4,31.5,19.7,0000.0,0009.92,0004.12,0003.62
2022-09-17 21:22:00,,0822.6,5.00,0.00,29.7,28.1,00.0,38.4,31.6,19.5,0000.0,0009.04,0004.09,0003.61
2022-09-17 21:23:00,,0822.6,5.00,0.00,29.7,28.3,00.0,38.4,31.6,19.4,0000.0,0009.00,0004.02,0003.60
2022-09-17 21:24:00,,0822.6,4.99,0.00,29.8,28.5,00.0,38.4,31.7,19.3,0000.0,0008.37,0003.98,0003.58
2022-09-17 21:25:00,,0822.5,5.01,0.00,29.8,28.6,00.0,38.4,31.7,19.4,0000.0,0007.74,0003.97,0003.57
2022-09-17 21:26:00,,0822.5,4.99,0.00,29.8,28.7,00.0,38.5,31.7,19.5,0000.0,0007.95,0004.00,0003.55
2022-09-17 21:27:00,,0822.5,5.00,0.00,29.9,28.7,00.0,38.5,31.8,19.4,0000.0,0008.06,0003.99,0003.54
2022-09-17 21:28:00,,0822.5,5.00,0.00,29.9,27.7,00.0,38.5,31.8,19.4,0000.0,0008.54,0003.97,0003.52
2022-09-17 21:29:00,,0822.4,5.00,0.00,29.8,26.5,00.0,38.4,31.6,19.8,0000.0,0009.07,0003.95,0003.51
2022-09-17 21:30:00,,0822.4,5.00,0.00,29.8,26.5,00.0,38.4,31.6,19.7,0000.0,0009.30,0003.94,0003.52
2022-09-17 21:31:00,,0822.4,5.00,0.00,29.7,26.7,00.0,38.4,31.4,19.7,0000.0,0009.43,0003.95,0003.52
2022-09-17 21:32:00,,0822.4,5.00,0.00,29.7,27.1,00.0,38.4,31.4,19.6,0000.0,0009.54,0003.96,0003.53
2022-09-17 21:33:00,,0822.4,5.01,0.00,29.7,27.4,00.0,38.3,31.4,19.8,0000.0,0009.79,0003.97,0003.54
2022-09-17 21:34:00,,0822.4,5.01,0.00,29.7,27.7,00.0,38.3,31.5,19.8,0000.0,0010.20,0004.01,0003.54
2022-09-17 21:35:00,,0822.4,4.99,0.00,29.7,28.0,00.0,38.4,31.5,19.9,0000.0,0010.79,0004.07,0003.55
2022-09-17 21:36:00,,0822.4,5.02,0.00,29.7,28.2,00.0,38.4,31.6,20.0,0000.0,0010.70,0004.07,0003.54
2022-09-17 21:37:00,,0822.4,4.99,0.00,29.7,28.4,00.0,38.4,31.6,19.8,0000.0,0010.45,0004.06,0003.56
2022-09-17 21:38:00,,0822.4,4.99,0.00,29.8,28.5,00.0,38.4,31.7,19.8,0000.0,0010.53,0004.08,0003.56
2022-09-17 21:39:00,,0822.5,5.00,0.00,29.8,28.7,00.0,38.4,31.7,20.0,0000.0,0010.05,0004.10,0003.57
2022-09-17 21:40:00,,0822.5,5.00,0.00,29.8,28.8,00.0,38.4,31.8,19.9,0000.0,0009.99,0004.15,0003.60
2022-09-17 21:41:00,,0822.5,5.01,0.00,29.9,28.7,00.0,38.5,31.9,19.9,0000.0,0010.85,0004.19,0003.63
2022-09-17 21:42:00,,0822.5,4.99,0.00,29.9,27.5,00.0,38.5,31.8,19.8,0000.0,0010.99,0004.21,0003.66
2022-09-17 21:43:00,,0822.6,5.00,0.00,29.8,26.4,00.0,38.4,31.6,19.9,0000.0,0011.41,0004.23,0003.67
2022-09-17 21:44:00,,0822.5,5.00,0.00,29.8,26.4,00.0,38.4,31.6,20.2,0000.0,0011.26,0004.29,0003.70
2022-09-17 21:45:00,,0822.5,5.00,0.00,29.7,26.7,00.0,38.4,31.4,20.2,0000.0,0010.51,0004.31,0003.74
2022-09-17 21:46:00,,0822.4,5.00,0.00,29.7,27.1,00.0,38.3,31.4,20.4,0000.0,0010.03,0004.29,0003.76
2022-09-17 21:47:00,,0822.4,5.00,0.00,29.6,27.4,00.0,38.3,31.4,20.1,0000.0,0010.01,0004.27,0003.78
2022-09-17 21:48:00,,0822.4,5.00,0.00,29.7,27.7,00.0,38.3,31.4,20.2,0000.0,0010.27,0004.30,0003.80
2022-09-17 21:49:00,,0822.4,5.01,0.00,29.7,27.9,00.0,38.3,31.5,20.7,0000.0,0010.89,0004.34,0003.81
2022-09-17 21:50:00,,0822.4,4.99,0.00,29.7,28.2,00.0,38.3,31.6,20.9,0000.0,0011.42,0004.37,0003.82
2022-09-17 21:51:00,,0822.4,5.01,0.00,29.7,28.4,00.0,38.4,31.6,20.7,0000.0,0011.09,0004.35,0003.81
2022-09-17 21:52:00,,0822.4,5.00,0.00,29.7,28.5,00.0,38.4,31.7,19.9,0000.0,0010.17,0004.36,0003.80
2022-09-17 21:53:00,,0822.5,4.99,0.00,29.8,28.6,00.0,38.4,31.7,19.8,0000.0,0009.69,0004.34,0003.77
2022-09-17 21:54:00,,0822.4,5.01,0.00,29.8,28.8,00.0,38.4,31.8,19.7,0000.0,0009.23,0004.30,0003.75
2022-09-17 21:55:00,,0822.4,4.99,0.00,29.9,28.9,00.0,38.5,31.8,19.7,0000.0,0009.26,0004.25,0003.73
2022-09-17 21:56:00,,0822.4,4.99,0.00,29.9,28.7,00.0,38.5,31.9,19.9,0000.0,0009.67,0004.27,0003.72
2022-09-17 21:57:00,,0822.4,5.00,0.00,29.9,27.4,00.0,38.5,31.8,20.0,0000.0,0009.50,0004.25,0003.71
2022-09-17 21:58:00,,0822.5,5.00,0.00,29.9,26.4,00.0,38.4,31.7,19.7,0000.0,0009.87,0004.25,0003.70
2022-09-17 21:59:00,,0822.6,5.00,0.00,29.8,26.5,00.0,38.4,31.6,19.9,0000.0,0009.79,0004.29,0003.69
